Other Public Products
Issued by NWS Charleston, SC

Current Version | Previous Version | Graphics & Text | Print | Product List | Glossary On
Versions: 1 2 3 4 5 6 7 8 9 10 11 12 13 14 15 16 17 18 19 20 21 22 23 24 25 26 27 28 29 30 31 32 33 34 35 36 37 38 39 40 41 42 43 44 45 46 47 48 49 50
000 FPUS82 KCHS 252327 OPUCHS TEST...KCHS/KSAV Gateway Observations...TEST National Weather Service Charleston SC 700 PM EDT TUE JUL 25 2017 NOTE: "fair" indicates few or no clouds below 12,000 feet with no significant weather and/or obstructions to visibility. SCZ050-WAZ558-NCZ071-TXZ119-213-PAZ071-DCZ001-FLZ074-172-MI076- NYZ176-178-MAZ016-IL014-TNZ027-NJZ106-GAZ044-MD014-260000- ...Gateway Observations for Charleston International... CITY SKY/WX TMP DP RH WIND PRES REMARKS Chas Airport CLOUDY 78 72 81 SW5 30.05R Seattle SUNNY 84 51 31 NW12 30.01F Charlotte PTSUNNY 93 64 38 CALM 30.06R HX 94 Dallas DFW MOSUNNY 96 70 42 S10 29.99F HX 102 Dallas Love MOSUNNY 97 68 38 S13 29.99F HX 102 Philladelphia CLOUDY 76 62 62 CALM 30.13R Wash National MOSUNNY 80 61 52 NW10 30.13S Baltimore PTSUNNY 78 63 59 N6 30.13R Miami CLOUDY 87 77 72 SE6 30.09R HX 99 Detroit MOSUNNY 78 55 44 SE6 30.21S Newark PTSUNNY 72 60 66 NE8 30.15R Laguardia CLOUDY 68 60 75 NE9 30.15S J F K PTSUNNY 70 61 73 NE9 30.16R Boston Logan MOSUNNY 64 54 69 NE6 30.18R Ft. Lauderdale PTSUNNY 87 76 69 SE8 30.08R HX 97 Chicago O`Hare CLOUDY 78 56 46 SE16 30.12F Chicago Midway PTSUNNY 79 58 48 E14 30.12F Houston Bush PTSUNNY 93 73 52 S12G18 30.04F HX 102 Houston Hobby PTSUNNY 91 75 59 S13 30.04F HX 101 Nashville CLOUDY 89 72 56 N6 30.07F HX 96 Atlanta CLOUDY 83 69 62 S3 30.07F $$ GAZ044-118-TXZ119-213-NCZ071-DCZ001-MDZ014-506-PAZ021-071-NJZ106- NYZ176-178-MAZ106-OHZ011-021-055-MIZ076-KYZ091-ILZ014-INZ047- MNZ060-ONZ431-260000- ...Gateway Observations for Savannah International... CITY SKY/WX TMP DP RH WIND PRES REMARKS Savannah Arpt TSTM 77 72 84 N8 30.08R Atlanta CLOUDY 83 69 62 S3 30.07F Charlotte PTSUNNY 93 64 38 CALM 30.06R HX 94 Dallas DFW MOSUNNY 96 70 42 S10 29.99F HX 102 Houston Bush PTSUNNY 93 73 52 S12G18 30.04F HX 102 Wash National MOSUNNY 80 61 52 NW10 30.13S Wash Dulles MOSUNNY 77 58 51 W12 30.14S Baltimore PTSUNNY 78 63 59 N6 30.13R Philadelphia CLOUDY 76 62 62 CALM 30.13R Newark PTSUNNY 72 60 66 NE8 30.15R Laguardia CLOUDY 68 60 75 NE9 30.15S J F K PTSUNNY 70 61 73 NE9 30.16R Boston MOSUNNY 64 54 69 NE6 30.18R Pittsburg PTSUNNY 74 57 55 N6 30.20R Akron CLOUDY 76 57 51 NE6 30.20F Cleveland PTSUNNY 74 60 61 N9 30.23R Cincinnati SUNNY 79 61 53 E8 30.15S Columbus SUNNY 74 60 61 E5 30.19R Detroit MOSUNNY 78 55 44 SE6 30.21S Chicago O`Hare CLOUDY 78 56 46 SE16 30.12F Minneapolis TSTM 83 72 69 VRB6 29.95R Indianapolis MOSUNNY 80 57 45 E7 30.16R Toronto Canada MOSUNNY 70 55 60 S8 30.22S $$

USA.gov is the U.S. government's official web portal to all federal, state and local government web resources and services.